{"data":{"norad_id":82205,"intl_designator":"","name":"UNKNOWN","alt_names":[],"object_type":"UNKNOWN","status":"UNKNOWN","operator":null,"country":null,"launch_date":null,"launch_site_code":null,"launch_vehicle":null,"mission":null,"orbit_class":"UNKNOWN","rcs_meters":null,"size_class":null,"mass_kg":null,"dimensions":null,"purposes":[],"wikipedia_slug":null,"has_3d_model":false,"image_url":null,"decayed_at":null,"tle_current":{"epoch":"2026-05-20T10:28:13.566432Z","epoch_age_seconds":465309,"freshness":"STALE","line1":"1 82205U          26140.43626813  .00001389  00000+0  39973-3 0  9997","line2":"2 82205  63.0056 154.4127 0500036 309.2671  46.5004 13.94237718630121","mean_motion":13.94237718,"eccentricity":0.0500036,"inclination_deg":63.0056,"raan_deg":154.4127,"arg_perigee_deg":309.2671,"mean_anomaly_deg":46.5004,"bstar":0.00039973,"rev_number":63012,"period_min":103.28224386768,"perigee_km":549.19362395022,"apogee_km":1278.4415865483,"semimajor_km":7291.9546052493,"source":"CELESTRAK","updated_at":"2026-05-25T13:38:11.185482Z"}}}